Location: Bakov nad Jizerou
(50.4784°N, 14.9394°E)
Time: 09:23:58
(UTC+00:00)

Cosmos 1441 Rocket - Pass Details

Date: 16 June 2021
Orbit: 496 x 539 km, 81.1° (Epoch: 04 August)

Event Time Altitude Azimuth Distance (km) Brightness Sun altitude
Exits shadow 22:53:32 33° 193° (SSW) 897 3.9 -16.1°
Maximum altitude 22:55:12 87° 279° (W) 528 3.1 -16.1°
Drops below altitude 10° 22:59:03 10° 12° (NNE) 1,752 7.2 -16.1°
Sets 23:01:11 0° 13° (NNE) 2,636 8.4 -16.1°
